Wind_Speed
52 52 52 53 54 54 55 56 58 59 60 61 62 63 64 66 67 68 69 70 71 72 74 75 76 77 78 79 81 82 83 84 85 86 87 88 89 89 90 91 92 93 94 94 95 96 96 97 97 98 98 98 99 99 99 100 100 100 100 101 101 101 101 101 101 101 100 100 100 100 99 99 99 99 99 99 99 99 99 99 99 99 99 99 99 98
53 54 54 55 56 57 58 59 60 61 63 64 65 66 67 68 70 71 72 73 74 75 76 78 79 80 81 82 84 85 86 87 88 89 90 91 92 93 94 95 95 96 97 97 98 99 99 99 100 100 100 100 100 100 100 100 100 100 100 100 100 100 100 100 100 100 100 99 99 99 98 98 98 98 98 98 98 98 98 98 98 98 98 97 97 97
55 56 56 57 58 59 60 62 63 64 66 67 68 69 70 71 72 73 75 76 77 78 79 81 82 83 84 86 87 88 90 91 92 93 94 95 96 97 97 98 99 99 100 100 100 101 101 101 101 101 101 101 100 100 100 100 99 99 99 99 99 99 99 99 98 98 98 98 97 97 96 96 95 95 95 95 96 96 96 96 96 96 95 95 95 95
57 57 58 59 60 62 63 64 66 67 68 69 71 72 73 74 75 76 77 78 80 81 82 84 85 86 88 89 90 92 93 94 95 96 97 98 99 100 100 101 101 101 101 101 101 101 101 101 100 100 100 99 99 98 98 98 97 97 97 97 96 96 96 96 96 95 95 95 95 94 94 93 92 92 92 92 92 92 92 91 91 91 91 90 90 90
59 60 61 62 63 64 65 67 68 70 71 72 73 74 76 77 78 79 80 81 82 84 85 87 88 89 91 92 93 95 96 97 98 99 100 101 102 102 102 103 103 102 102 102 101 100 100 99 98 98 97 97 96 96 95 95 94 94 93 93 93 93 92 92 92 92 91 91 91 90 89 89 88 87 86 86 86 85 85 84 84 84 83 84 84 84
61 62 63 65 66 67 68 70 71 72 74 75 76 77 78 79 81 82 83 84 85 87 88 89 91 92 94 95 96 97 99 100 101 101 102 103 103 103 103 103 103 102 101 100 99 98 97 97 96 95 94 94 93 92 92 91 90 90 89 89 89 88 88 87 87 87 86 86 85 84 83 82 81 80 79 79 78 78 77 76 76 76 76 76 76 76
64 65 66 67 69 70 71 72 74 75 77 78 79 80 81 82 83 84 86 87 88 90 91 92 94 95 96 98 99 100 101 101 102 102 103 103 103 102 102 101 101 100 99 97 96 95 94 93 92 91 90 89 89 88 87 86 86 85 85 84 84 83 83 82 81 81 80 79 78 77 75 74 73 73 72 72 71 70 69 69 69 68 68 67 67 67
66 67 69 70 71 72 74 75 76 78 79 80 82 83 84 85 86 87 88 90 91 92 94 95 96 98 99 100 101 101 102 102 102 102 102 101 101 100 99 98 97 96 94 93 92 91 90 89 87 86 85 84 84 83 82 82 81 80 80 79 78 77 76 76 75 74 73 71 70 69 67 66 65 65 64 64 63 63 63 63 62 61 60 59 58 59
69 70 71 72 73 75 76 77 79 80 81 83 84 85 86 87 88 89 91 92 93 95 96 97 99 100 101 101 102 102 102 101 101 100 99 98 98 97 95 93 92 90 89 88 86 85 84 83 82 81 80 79 78 78 77 76 75 75 74 73 72 71 70 69 68 67 65 64 62 61 59 58 57 56 55 55 55 55 55 55 54 53 52 52 52 53
71 72 73 74 75 77 78 79 81 82 83 85 86 88 89 90 91 92 93 94 96 97 98 99 100 101 102 102 102 101 100 99 98 97 95 94 92 91 90 88 86 84 83 82 81 80 79 78 77 76 75 74 73 72 71 70 69 69 68 67 66 64 63 62 61 59 57 55 53 51 49 48 47 46 45 45 45 46 46 46 46 46 46 47 48 48
73 74 75 76 77 79 80 81 83 84 86 87 89 90 92 93 94 95 96 97 98 99 100 101 101 100 100 100 100 99 97 95 94 93 91 89 87 85 83 82 80 78 77 76 75 74 73 73 72 71 70 69 68 67 66 65 63 62 61 60 59 58 57 55 53 50 48 45 43 41 40 38 38 37 37 37 38 38 38 38 39 40 41 43 44 45
75 76 77 78 79 81 82 84 85 87 88 89 91 93 94 95 96 97 97 98 99 100 100 100 100 99 98 96 96 95 94 91 89 87 85 83 81 79 77 75 74 72 71 70 69 68 68 67 67 66 65 64 63 61 60 59 58 57 55 54 53 51 49 46 43 40 38 36 34 33 32 32 32 32 32 33 33 33 33 34 34 36 37 39 40 41
76 77 79 80 81 83 85 86 88 89 91 92 93 94 95 97 98 99 99 100 100 100 99 98 97 96 95 92 91 89 88 86 84 81 79 77 75 73 71 70 68 67 66 65 64 63 62 62 62 61 60 59 58 56 55 54 52 51 49 48 45 42 39 36 34 32 31 30 29 29 28 28 28 29 29 29 30 30 31 31 32 33 34 36 37 38
78 79 81 82 84 85 87 89 90 92 93 94 95 96 97 98 99 99 99 99 99 98 96 94 92 91 89 87 85 83 82 80 78 75 73 71 69 67 66 65 64 62 61 60 59 58 57 57 56 56 55 53 52 51 49 48 46 45 42 39 37 34 32 30 29 29 28 28 27 27 26 26 26 26 27 27 28 28 29 30 31 31 32 33 34 36
80 81 83 84 86 88 89 91 93 94 95 96 97 98 98 99 99 99 98 97 96 94 92 89 87 85 83 81 79 77 75 74 72 69 67 65 63 62 61 60 59 58 57 56 55 54 53 52 51 50 48 47 46 45 43 42 40 37 35 32 31 30 29 29 28 28 27 27 26 26 25 25 25 25 25 25 26 27 27 28 29 29 30 31 32 33
82 84 85 87 89 90 92 93 94 95 96 97 98 98 97 97 97 96 94 92 90 88 85 83 81 79 78 75 73 70 69 68 66 64 62 60 59 58 57 56 56 54 53 51 50 49 48 46 45 43 42 40 39 38 37 35 33 32 30 29 29 29 29 29 29 28 27 27 26 25 25 24 24 23 23 24 24 25 25 26 26 27 27 28 29 30
85 86 88 89 91 92 93 94 95 96 96 97 97 96 95 94 93 91 89 86 84 82 79 77 75 73 71 70 68 65 64 63 62 60 58 56 55 55 54 53 52 50 48 46 44 43 41 40 38 37 35 34 34 33 31 30 29 29 29 29 29 30 30 29 29 28 27 26 25 24 24 23 22 22 22 22 23 23 23 23 24 24 25 25 26 27
87 88 90 91 92 93 94 95 95 96 95 95 94 93 92 90 88 85 82 80 77 75 74 72 70 68 65 64 62 61 60 59 58 57 56 54 53 52 51 49 47 45 42 40 38 36 34 33 32 31 30 30 29 28 28 28 28 28 29 30 30 30 30 29 28 27 27 26 25 23 23 22 21 21 21 21 21 21 22 22 22 22 22 23 23 24
89 90 91 92 93 94 94 94 94 93 92 91 90 89 87 85 82 79 76 73 71 69 68 66 65 63 61 60 59 58 58 57 56 55 54 52 50 48 45 43 41 38 35 32 31 30 29 28 28 27 27 27 27 27 27 27 28 29 29 30 30 30 29 29 28 27 26 25 24 22 21 21 20 20 20 20 20 20 20 20 20 20 20 20 20 20
91 92 93 93 93 93 93 92 91 89 88 87 86 83 81 78 75 73 70 68 66 65 63 61 60 59 58 57 57 57 56 55 54 53 50 48 45 41 39 36 33 30 28 26 26 26 26 26 26 26 26 26 26 26 27 28 28 29 29 30 30 29 29 28 27 26 25 24 22 21 20 20 19 19 19 19 19 20 20 20 19 19 18 18 17 17
92 93 93 93 92 91 90 89 87 86 83 82 80 78 75 72 70 67 65 63 61 60 59 58 57 57 56 56 56 55 54 53 51 49 46 42 38 34 31 29 27 25 23 23 23 24 25 25 25 26 26 26 26 27 27 28 28 29 29 29 29 28 28 27 26 25 24 22 21 20 19 19 18 18 18 19 19 19 19 19 19 18 17 16 15 14
92 92 93 92 90 88 86 84 83 80 78 76 73 71 69 67 65 63 61 59 58 57 56 55 55 55 55 55 54 52 51 48 46 43 40 35 31 27 25 24 23 22 22 22 23 24 25 25 26 26 26 27 27 27 27 27 28 28 28 28 28 27 27 26 25 24 22 21 20 19 18 18 18 18 18 18 18 19 19 19 18 17 16 15 13 12
92 91 91 89 87 85 82 79 77 75 72 70 68 66 64 62 60 58 57 56 55 54 54 54 54 54 54 52 50 47 45 42 40 38 34 29 25 23 22 22 21 21 22 23 24 25 25 26 27 27 27 27 27 27 26 26 26 26 26 26 26 25 25 24 23 22 21 20 19 18 18 17 17 17 16 17 17 18 18 18 18 17 15 14 12 11
91 89 88 85 83 80 77 73 71 68 66 65 63 62 60 58 57 55 54 54 54 54 54 54 54 52 50 47 44 41 39 36 35 33 29 26 23 22 22 22 22 23 23 24 25 26 26 27 27 27 26 26 26 25 25 24 24 24 24 24 24 23 23 22 21 20 19 18 18 17 17 17 16 16 16 16 16 16 17 17 17 16 15 13 11 9
88 86 84 81 78 74 70 67 65 63 62 61 60 59 57 56 54 53 53 53 53 54 54 53 51 48 45 42 38 35 34 32 31 29 27 24 23 23 24 24 24 25 25 25 26 27 27 27 27 26 26 25 24 24 23 23 23 23 23 23 23 22 21 21 20 19 18 18 18 17 17 16 16 16 15 15 15 15 16 16 16 16 14 13 11 9
85 82 79 75 72 68 64 62 60 59 59 58 57 56 55 53 52 52 52 52 53 53 52 50 47 44 40 36 33 31 31 30 28 27 26 25 24 25 25 26 26 26 26 26 26 27 26 26 25 25 24 24 23 23 23 23 23 23 23 23 22 22 21 20 20 19 18 18 17 17 17 16 16 15 15 15 14 14 15 15 15 15 14 13 11 10
81 78 74 70 66 62 59 57 57 56 56 56 55 54 53 51 51 51 51 51 51 51 49 47 43 39 34 31 29 29 30 29 28 27 26 26 27 27 27 26 26 26 26 26 26 26 26 25 24 24 24 23 23 23 23 23 23 24 24 23 23 22 22 21 20 20 19 18 17 17 17 16 16 15 14 14 14 14 14 14 14 14 14 13 12 11
76 72 68 64 60 57 55 55 54 54 54 54 53 52 51 50 50 50 50 50 50 48 46 42 38 34 31 28 28 28 29 30 29 28 27 28 28 28 27 27 26 25 25 25 25 25 25 25 24 24 24 24 24 24 25 25 25 25 25 24 24 23 23 22 21 20 19 19 18 17 17 16 16 15 14 14 13 13 13 13 14 14 14 13 12 12
69 65 62 58 56 54 53 53 53 53 53 52 51 50 50 49 49 49 49 49 47 45 42 38 34 31 29 27 27 28 30 31 30 29 29 29 29 28 28 27 26 25 24 24 24 25 26 26 26 26 25 25 26 26 26 26 26 26 26 25 25 24 24 23 22 21 20 19 18 17 16 16 15 14 14 13 13 13 13 13 13 13 13 13 13 12
64 60 57 54 53 52 51 51 51 51 51 50 50 49 48 48 48 48 48 47 45 42 39 35 32 29 28 28 28 29 30 31 31 30 30 29 28 28 27 26 25 24 24 23 24 25 27 28 29 28 28 28 28 27 28 28 27 27 27 26 26 25 24 24 23 22 21 20 18 17 16 16 15 14 13 13 12 12 12 12 12 13 13 12 12 12
58 55 53 52 51 51 50 50 50 50 50 49 48 48 47 47 47 47 46 45 42 39 36 32 30 29 29 29 30 31 31 31 31 30 30 29 28 27 26 26 25 25 24 24 24 25 26 28 30 30 30 29 29 28 28 27 27 27 26 26 26 25 25 24 23 22 21 20 19 17 16 15 15 14 13 12 12 12 12 12 12 12 12 11 11 11
53 51 50 50 50 49 49 49 49 48 48 48 47 46 46 46 46 45 44 42 40 36 33 31 29 29 29 31 32 32 32 32 31 30 29 28 27 26 26 26 26 26 26 26 26 26 26 27 29 30 30 29 28 27 27 26 26 25 25 25 25 24 24 24 23 22 21 20 19 17 16 15 14 14 13 12 12 11 11 11 11 11 11 11 11 11
50 49 49 49 48 48 47 47 47 47 47 46 46 45 45 45 44 43 42 40 37 34 31 30 29 30 30 31 32 33 33 32 31 29 28 27 26 26 26 26 26 27 27 27 27 27 27 26 27 27 27 27 27 26 25 25 24 24 23 23 23 23 23 23 23 22 21 20 18 17 16 15 14 13 13 12 11 11 11 10 10 10 10 10 10 10
48 48 48 48 47 47 46 46 46 46 46 45 45 44 44 43 43 42 40 37 35 32 31 30 30 30 31 32 32 32 32 31 30 29 28 27 26 26 26 26 27 27 27 27 27 27 26 26 25 25 25 25 25 24 24 23 23 23 22 22 22 22 22 22 22 21 21 19 18 17 15 14 13 13 12 12 11 11 10 10 10 10 10 10 9 9
47 47 47 47 46 46 45 45 45 45 45 44 44 43 43 42 41 40 38 35 33 31 30 30 31 31 32 32 32 31 31 30 29 28 27 27 26 27 27 27 27 27 26 26 26 25 25 24 24 23 23 23 23 23 23 23 23 22 22 21 21 21 21 21 21 21 20 19 18 16 15 13 12 12 11 11 11 10 10 10 10 10 10 10 9 9
46 46 46 46 46 45 44 44 44 44 44 43 43 42 41 40 39 37 36 33 32 31 31 31 31 32 32 32 32 31 29 28 28 27 27 27 27 27 27 27 27 26 25 24 24 24 23 23 23 23 23 23 23 23 24 24 23 23 22 21 21 21 21 21 20 20 19 18 17 16 14 13 12 11 11 11 10 10 10 10 10 10 10 10 9 8
46 46 46 45 45 45 44 44 43 43 43 42 42 41 40 39 37 36 34 32 31 31 31 32 32 32 32 32 31 30 29 28 27 27 27 27 27 27 27 27 26 25 24 23 22 22 22 22 23 23 23 23 23 23 23 24 24 23 22 22 21 21 21 20 20 19 19 18 17 16 14 13 12 11 10 10 10 10 10 10 10 10 9 9 8 8
45 45 45 45 44 44 43 43 43 42 42 42 41 40 38 37 35 34 32 31 31 31 31 32 32 32 32 31 30 29 28 27 27 26 27 27 27 27 26 25 25 24 23 22 21 21 22 22 23 23 23 23 23 23 23 23 23 23 23 23 22 22 21 20 20 19 18 17 16 15 14 13 11 11 10 10 10 10 10 10 10 9 9 8 8 7
45 44 44 44 44 43 43 42 42 42 41 40 39 38 37 35 34 32 31 31 30 30 31 32 32 32 32 31 30 28 27 27 26 26 26 26 26 26 25 24 23 23 22 22 22 21 22 22 22 22 23 23 22 22 22 22 23 23 23 23 23 22 22 21 20 19 18 17 16 15 14 13 11 11 10 10 10 10 10 10 10 9 8 8 7 7
44 44 43 43 43 42 42 41 41 40 40 39 38 37 35 34 32 31 30 30 30 30 30 31 32 32 31 30 29 28 27 26 26 26 26 26 25 24 23 23 23 22 22 22 22 22 22 22 22 22 22 22 22 22 22 22 22 22 23 23 23 23 23 21 20 19 18 17 16 15 14 12 11 11 11 10 10 10 10 10 9 9 8 8 7 6
44 43 43 43 42 41 41 40 40 39 39 38 37 36 34 33 31 30 29 29 29 30 30 31 31 31 31 30 28 27 26 26 26 25 25 24 24 23 22 22 22 22 23 23 23 22 22 22 22 22 22 22 22 22 22 22 22 22 22 23 23 23 23 22 21 20 18 17 16 15 14 13 12 11 11 11 11 10 10 10 9 9 8 8 7 6
43 43 42 42 41 41 40 39 39 38 38 37 36 34 33 31 30 29 29 28 29 29 30 30 31 31 30 29 28 27 26 25 25 24 24 23 23 22 22 22 22 23 23 23 23 23 22 22 22 22 22 22 22 22 22 22 22 22 22 23 23 23 23 22 21 20 18 17 15 14 13 13 12 11 11 11 11 11 10 10 10 9 9 8 7 6
43 42 42 41 40 40 39 38 38 37 37 36 35 33 32 30 29 28 28 28 28 28 29 30 30 30 30 29 28 27 26 25 24 23 23 22 22 21 22 22 23 23 23 23 23 23 22 22 22 22 22 22 22 22 23 23 23 23 23 23 23 23 23 22 21 19 18 16 15 14 13 13 12 12 12 12 12 11 11 11 10 10 9 8 7 6
42 41 41 40 39 39 38 37 37 36 35 34 33 32 31 29 28 27 27 27 27 28 28 29 29 29 29 28 27 26 25 24 23 22 21 21 21 21 22 22 22 23 23 23 23 23 23 22 22 22 22 22 22 22 23 23 24 24 24 24 24 23 22 21 20 19 17 16 15 14 13 13 12 12 12 12 12 12 12 11 11 10 9 8 7 6
41 41 40 39 38 37 37 36 35 35 34 33 32 31 29 28 27 26 26 26 26 27 28 28 28 28 28 27 26 25 24 23 22 21 20 20 20 21 21 22 22 22 22 23 23 23 23 23 22 22 22 22 22 23 23 24 25 25 25 25 24 23 22 21 19 17 16 14 13 13 13 13 13 13 13 13 13 13 13 12 11 10 9 9 8 6
41 40 39 38 37 36 35 35 34 33 33 32 31 29 28 27 26 25 25 25 26 26 27 27 27 27 26 26 25 24 23 22 21 20 19 19 20 20 21 21 21 21 21 22 22 23 23 23 22 22 22 22 23 23 24 24 25 25 26 25 25 24 22 21 19 16 14 13 12 12 12 12 12 13 13 14 14 14 13 13 12 11 10 9 8 7
40 39 38 37 36 35 34 33 33 32 31 30 29 28 27 26 25 25 24 24 25 25 26 26 26 26 25 24 23 22 21 20 20 19 19 19 19 20 20 20 20 20 20 20 21 22 22 22 22 22 22 23 23 24 24 25 25 26 26 25 24 23 22 21 18 16 13 11 10 10 11 11 12 13 14 15 15 15 14 13 13 12 11 10 9 8
40 38 37 36 35 34 33 32 31 31 30 29 28 27 26 25 24 24 24 24 24 24 25 25 25 25 24 23 22 21 20 19 19 18 18 19 19 19 19 19 19 18 18 19 20 21 22 22 22 22 22 23 23 24 25 25 26 26 25 25 24 22 21 19 17 14 11 9 8 8 9 11 12 13 15 15 16 16 15 14 14 13 12 11 10 8
39 37 36 34 33 32 32 31 30 30 29 28 27 26 25 24 23 23 23 23 23 24 24 24 24 24 23 22 20 19 18 18 17 18 18 18 19 19 19 18 18 18 17 17 18 19 20 21 22 22 22 22 23 24 25 25 26 25 25 24 22 21 19 17 15 12 10 7 5 6 9 11 13 14 16 16 17 17 16 16 15 14 13 11 10 9
37 36 34 33 32 31 30 30 29 28 28 27 26 25 24 23 22 22 22 22 22 23 23 23 23 22 21 20 19 18 17 16 16 17 17 18 18 18 18 18 18 18 17 17 17 17 18 20 21 21 22 22 23 24 24 25 25 25 24 22 21 19 17 15 12 10 7 4 3 5 8 11 13 15 17 18 18 18 18 17 16 14 13 12 11 10
36 34 33 32 31 30 29 29 28 27 26 26 25 24 23 22 21 21 21 21 21 22 22 22 22 21 20 19 17 16 15 15 15 16 16 17 18 18 18 18 18 18 17 17 17 17 17 18 19 20 21 23 24 24 24 24 24 23 22 21 19 17 15 13 10 7 5 2 2 5 9 11 14 16 18 19 20 20 19 18 16 15 14 13 12 12
Wind_Direction
300 299 299 299 299 299 299 299 299 299 299 298 298 298 298 298 298 298 298 298 298 297 297 297 297 297 296 296 296 296 295 295 295 295 294 294 294 293 293 293 292 292 291 291 290 289 289 288 288 287 286 286 285 285 284 284 283 283 282 282 281 281 280 280 280 279 279 278 278 277 277 277 276 276 275 275 274 273 273 272 272 271 271 270 270 269
301 300 300 300 300 300 300 300 299 299 299 299 298 298 298 298 298 298 298 298 298 298 298 298 298 297 297 297 297 297 296 296 296 296 295 295 294 294 294 293 293 292 292 291 290 290 289 288 288 287 286 286 285 285 284 284 283 283 283 282 282 281 281 280 280 280 279 279 278 278 277 277 277 276 276 275 275 274 274 273 273 272 271 271 270 269
301 301 301 301 301 301 300 300 300 299 299 299 299 298 298 298 298 298 298 298 299 299 299 299 299 299 298 298 298 298 298 297 297 296 296 296 295 295 294 294 293 292 292 291 290 290 289 288 288 287 286 286 285 285 285 284 284 283 283 283 282 282 281 281 281 280 280 279 279 279 278 278 277 277 277 276 276 276 275 274 274 273 272 272 271 270
302 302 301 301 301 301 301 300 300 300 299 299 299 299 299 299 299 299 299 300 300 300 300 300 300 300 299 299 299 299 298 298 297 297 296 296 295 295 294 293 293 292 291 291 290 289 289 288 288 287 287 286 286 285 285 284 284 284 283 283 283 282 282 282 282 281 281 281 280 280 280 279 279 278 278 278 277 277 276 275 275 274 273 272 271 270
302 302 302 301 301 301 301 301 301 300 300 300 300 300 300 300 300 300 301 301 301 301 301 301 300 300 300 300 299 299 298 298 298 297 296 296 295 295 294 293 293 292 291 290 290 289 289 288 288 287 287 286 286 286 285 285 285 284 284 284 283 283 283 283 283 283 282 282 282 282 281 281 280 280 279 278 278 277 277 276 275 275 274 273 272 271
302 302 302 302 302 302 302 301 301 301 301 301 301 301 302 302 302 302 302 302 302 302 301 301 301 301 300 300 299 299 298 298 298 297 296 296 295 294 294 293 292 292 291 290 290 289 289 288 288 287 287 287 286 286 286 285 285 285 285 284 284 284 284 284 284 284 284 284 283 283 283 282 282 281 280 279 279 278 277 276 276 275 274 273 273 272
303 303 303 303 302 302 303 303 303 303 303 303 302 302 302 302 302 302 302 302 302 302 302 301 301 301 300 300 299 299 298 298 297 297 296 295 295 294 294 293 292 292 291 291 290 290 289 289 288 288 288 287 287 287 286 286 286 286 285 285 285 285 285 285 285 285 285 285 284 284 284 284 283 282 281 280 279 278 277 276 275 275 274 273 273 272
303 303 303 303 304 304 304 304 304 304 304 304 303 303 303 303 303 303 303 303 303 302 302 302 301 301 300 300 299 299 298 298 297 296 296 295 295 294 293 293 293 292 292 291 291 290 290 289 289 289 288 288 288 287 287 287 287 287 286 286 286 286 286 286 286 286 286 285 285 285 285 284 284 283 282 281 280 279 277 276 275 274 273 272 271 271
304 304 304 304 305 305 305 305 304 304 304 304 304 304 304 303 303 303 303 303 303 302 302 302 301 301 300 300 299 299 298 297 297 296 296 295 295 294 294 293 293 293 292 292 292 291 291 290 290 289 289 289 288 288 288 288 288 288 288 287 287 287 287 287 287 287 287 287 287 287 286 286 285 284 283 282 281 279 277 276 274 273 271 270 269 268
305 305 305 305 305 306 306 306 305 305 305 305 305 304 304 304 304 304 303 303 303 302 302 302 301 301 300 300 299 298 298 297 297 296 296 295 295 295 294 294 294 294 293 293 292 292 292 291 291 290 290 290 289 289 289 289 289 289 289 288 288 288 288 288 288 289 289 289 289 289 289 288 287 285 283 282 280 279 278 276 274 271 269 268 267 266
305 306 306 306 306 306 306 306 305 305 305 305 305 305 304 304 304 304 304 303 303 303 302 302 301 301 300 300 299 298 298 297 297 296 296 296 296 295 295 295 294 294 294 293 293 293 292 292 292 291 291 291 291 290 290 290 290 290 289 289 289 289 289 290 291 291 292 293 293 292 292 290 288 286 284 282 281 280 279 278 275 271 268 266 265 264
306 306 306 306 306 306 306 306 306 305 305 305 305 305 305 305 305 304 304 304 303 303 303 302 302 301 301 300 299 299 298 297 297 297 296 296 296 296 295 295 294 294 294 293 293 293 293 293 292 292 292 292 292 291 291 291 291 290 290 290 290 291 292 293 295 296 296 297 296 295 294 292 290 288 287 286 285 284 282 281 277 274 270 266 264 262
306 306 306 306 307 307 306 306 306 306 306 306 306 306 305 305 305 305 304 304 304 303 303 303 302 301 301 300 299 299 298 298 298 298 297 297 297 296 296 295 295 294 294 294 293 293 293 293 293 293 293 293 293 292 292 292 291 291 291 292 293 295 297 298 299 300 300 300 298 297 295 293 292 291 290 289 288 287 285 283 280 276 272 267 263 260
306 306 307 307 307 307 307 307 307 307 307 306 306 306 306 306 305 305 305 305 304 304 303 303 302 302 301 301 300 300 299 299 299 299 299 298 298 297 297 296 296 295 295 295 294 294 293 293 293 293 293 293 293 293 293 292 293 293 295 297 299 301 302 303 304 303 303 301 300 298 296 295 294 293 292 290 289 288 286 285 282 279 274 269 264 259
307 307 307 308 308 308 308 308 308 307 307 307 307 307 306 306 306 306 305 305 305 304 304 303 303 302 302 301 301 301 300 300 300 300 300 300 299 298 298 297 297 297 296 296 295 295 294 293 293 293 293 293 293 293 293 294 295 297 300 302 305 306 306 306 305 304 303 302 300 299 298 296 295 293 292 290 289 288 287 286 285 282 278 272 266 259
307 308 308 308 308 308 308 308 308 308 308 307 307 307 307 306 306 306 306 306 305 305 304 304 303 303 303 302 302 302 302 302 302 302 302 301 301 300 299 299 298 298 298 297 296 296 295 294 293 293 293 292 293 293 295 297 300 302 305 306 307 306 306 305 304 303 303 302 301 300 298 297 295 294 292 291 291 291 290 289 288 285 281 275 269 261
308 309 309 309 309 309 309 309 308 308 308 308 307 307 307 307 307 307 306 306 306 306 305 305 304 304 304 304 304 304 304 303 303 303 303 303 302 301 301 300 300 299 299 298 297 296 295 294 294 293 293 293 294 295 298 301 303 305 305 305 304 304 303 303 302 302 302 301 301 299 298 296 295 294 293 293 293 293 293 293 292 289 284 278 270 262
310 310 310 310 310 310 309 309 309 308 308 308 308 307 307 307 307 307 307 307 307 306 306 306 306 306 306 306 306 305 305 305 305 305 305 304 303 303 302 301 301 301 300 299 298 297 296 295 294 294 294 295 296 299 301 302 303 303 302 301 301 300 301 301 301 301 301 300 300 298 297 296 295 294 294 294 294 295 296 296 296 293 288 281 273 263
311 311 311 310 310 310 310 309 309 308 308 308 308 307 307 308 308 308 308 308 308 308 307 308 308 308 308 308 308 307 307 306 306 306 306 305 305 304 303 303 302 302 302 300 299 297 296 296 295 296 296 297 299 300 301 301 301 300 299 299 299 299 299 300 300 300 300 299 298 297 296 295 294 294 294 295 295 296 297 298 298 297 293 286 277 266
311 311 311 311 310 310 310 309 309 308 308 308 308 308 308 308 309 309 309 309 309 309 309 309 310 310 310 309 309 308 308 307 307 306 306 306 306 306 305 305 304 304 303 301 299 298 297 296 296 297 298 299 299 300 300 300 299 298 298 298 298 298 299 299 299 299 298 297 296 295 294 294 294 294 295 295 296 296 297 298 299 299 296 291 282 270
312 311 311 311 310 310 310 309 309 308 308 308 308 308 309 309 310 310 310 310 310 310 310 311 311 311 311 310 310 309 309 308 308 307 308 308 309 309 308 307 306 305 304 302 299 298 297 297 297 297 298 299 299 300 300 299 299 299 298 298 298 298 298 298 298 297 296 295 294 294 293 293 293 294 294 295 295 296 297 297 298 299 298 294 287 275
311 311 311 311 310 310 309 309 309 308 308 308 308 309 310 311 311 312 311 311 311 311 312 312 312 312 312 311 311 310 310 309 309 309 310 311 312 312 311 309 307 306 304 302 299 298 297 297 297 298 299 300 300 300 301 301 300 300 299 299 299 298 298 297 296 295 295 294 293 293 292 292 292 292 293 293 294 294 295 295 296 297 297 295 291 282
311 311 311 310 310 310 309 309 309 308 308 308 309 310 311 312 313 313 312 312 312 312 313 313 313 313 313 313 312 312 311 311 310 311 313 315 317 316 313 310 308 307 305 303 301 299 298 299 299 300 301 301 302 303 302 302 302 301 300 299 298 298 297 296 296 295 294 294 293 293 292 292 292 291 291 290 290 291 292 292 293 293 294 294 292 286
311 311 310 310 310 310 309 309 308 308 308 309 310 312 313 313 313 313 313 313 313 314 314 314 314 314 314 314 313 313 313 312 312 314 316 318 320 319 315 312 309 308 306 305 303 302 301 301 302 302 303 304 305 305 305 304 303 301 300 299 299 298 298 298 297 297 296 296 295 294 294 294 293 292 290 288 287 287 288 289 290 290 290 290 288 283
310 310 310 310 309 309 309 308 308 308 309 310 311 312 313 314 314 314 314 314 315 315 315 316 316 316 315 315 315 315 315 315 315 316 318 320 320 319 315 312 310 309 308 307 305 304 304 304 304 305 306 306 307 306 306 304 303 301 300 300 300 300 300 301 301 301 300 300 299 298 297 296 295 293 292 290 287 286 286 286 287 287 286 284 280 273
310 310 309 309 309 309 308 308 308 309 309 311 312 313 314 314 314 314 315 315 316 316 317 317 316 316 316 317 317 317 317 316 316 317 319 320 319 317 314 312 310 310 310 309 307 306 306 306 307 307 308 308 308 307 306 304 303 301 301 301 302 302 303 304 305 305 304 304 302 301 300 298 297 295 293 291 289 287 286 285 285 285 283 280 274 264
309 309 309 309 308 308 308 308 308 309 310 311 312 313 314 314 315 315 316 316 317 317 317 317 317 317 318 319 319 319 318 317 317 318 319 319 318 316 314 312 311 311 311 311 309 308 308 308 308 309 309 308 307 306 305 303 302 302 302 302 303 303 304 305 305 306 306 306 304 303 301 299 297 296 294 292 290 288 286 284 283 283 281 278 272 263
309 308 308 308 308 308 308 308 309 309 310 311 312 314 314 315 315 315 316 317 317 317 317 317 317 318 319 321 321 321 319 318 317 318 319 318 317 316 314 313 313 313 313 313 312 310 310 309 309 309 308 307 306 305 304 303 303 302 302 302 302 303 303 303 304 304 304 304 303 302 300 299 297 295 293 291 289 287 285 283 281 280 279 278 274 268
308 308 308 308 308 308 308 308 309 309 310 311 312 313 314 315 315 316 317 317 317 317 317 318 318 320 321 322 322 321 319 317 317 318 318 317 317 316 315 314 314 315 315 315 314 312 311 310 309 309 308 307 306 305 305 304 304 303 303 302 302 302 301 301 301 300 300 299 299 299 298 297 295 294 292 289 287 285 283 281 279 278 278 277 276 273
307 307 307 307 308 308 308 308 308 309 310 311 312 313 314 314 315 316 317 317 318 318 318 318 319 320 321 322 322 321 319 318 317 317 317 317 317 316 315 315 316 316 316 316 315 313 311 310 309 309 308 308 307 307 306 306 305 305 304 303 302 302 301 300 299 297 297 296 296 295 295 294 293 291 289 286 284 281 279 277 275 275 276 277 277 275
307 307 307 307 307 307 307 308 308 309 309 310 311 312 313 314 315 316 317 318 318 318 318 319 320 321 322 322 322 321 320 319 318 317 317 317 317 317 316 316 317 317 316 315 314 312 311 309 309 309 309 309 309 309 308 307 307 306 306 305 304 302 301 299 298 297 295 294 293 292 292 291 290 289 286 283 280 277 275 273 272 272 273 274 275 275
306 306 306 306 306 307 307 307 308 308 309 309 311 312 313 314 315 316 317 318 318 318 318 319 320 321 322 322 322 321 320 319 318 317 317 318 318 318 317 317 317 317 316 314 313 311 310 309 308 309 309 310 310 310 309 309 308 308 307 306 305 304 302 300 298 297 295 294 292 291 290 288 287 286 284 281 278 274 271 269 268 268 269 270 271 272
305 305 306 306 306 306 306 307 307 307 307 309 310 312 313 314 316 317 318 318 318 318 318 318 319 320 321 322 322 321 320 319 318 318 318 318 319 319 318 318 317 317 315 314 313 312 311 310 309 309 310 311 311 311 311 310 310 309 309 308 307 305 303 301 299 297 296 294 292 290 288 286 285 283 281 279 276 271 268 265 263 262 261 262 264 266
305 305 305 305 305 306 306 306 306 306 307 308 310 312 313 315 316 317 318 318 318 317 317 317 318 319 321 321 322 321 320 319 318 318 318 319 319 319 318 318 317 316 316 314 313 313 312 312 312 312 312 312 312 312 312 312 311 311 310 309 308 306 304 302 300 299 297 295 292 290 287 284 281 279 278 276 273 269 265 261 258 255 254 254 255 257
305 305 305 305 305 306 306 306 306 306 307 309 310 312 314 315 316 317 318 318 317 316 316 316 317 319 320 321 321 321 320 319 318 318 319 319 320 319 319 318 317 317 316 315 315 315 315 315 315 315 315 315 314 314 313 313 312 312 311 309 308 306 304 302 301 299 297 295 292 289 286 281 277 274 273 271 269 265 261 258 254 252 250 250 250 252
305 305 305 306 306 307 307 307 307 307 308 309 311 313 314 315 316 317 317 317 316 315 315 315 316 318 319 320 321 321 320 319 318 319 319 320 320 320 319 319 318 318 317 317 317 317 317 318 317 317 317 316 316 315 314 314 313 313 312 310 308 306 304 302 301 299 297 295 292 288 284 279 273 269 266 264 262 260 257 254 252 250 249 249 249 250
305 305 306 307 307 308 308 308 308 308 308 309 311 313 314 315 316 316 316 315 314 314 314 314 316 317 319 320 320 320 320 319 319 319 320 320 321 320 320 320 319 319 319 319 320 319 320 319 319 318 318 317 317 316 316 315 315 314 313 312 310 308 305 303 301 299 297 294 291 287 282 276 269 263 259 256 254 253 252 251 249 249 248 248 248 248
305 306 307 307 308 309 309 309 308 308 308 309 311 312 313 314 314 315 314 314 313 312 313 314 315 317 319 320 320 320 320 320 320 320 321 321 321 321 321 321 321 321 321 321 321 321 321 320 319 318 318 318 318 318 318 318 317 317 316 314 312 310 307 305 302 300 298 294 290 285 280 273 265 258 251 247 246 245 245 246 246 246 246 246 245 244
305 306 307 308 308 309 309 308 308 307 307 308 309 311 312 313 313 313 313 312 311 311 312 313 315 316 318 319 320 320 320 320 321 321 321 322 322 322 322 322 322 322 322 322 322 322 321 320 320 319 319 320 320 321 321 320 319 318 317 316 314 311 309 307 304 301 298 295 290 285 278 270 261 252 245 240 238 237 237 239 240 241 241 241 241 239
304 305 306 307 308 308 308 307 306 306 306 307 308 310 311 311 311 311 311 310 310 310 311 312 314 316 318 319 320 320 321 321 322 322 322 323 323 323 323 323 323 322 322 322 322 322 322 321 321 321 322 322 323 323 323 322 321 320 318 316 315 313 311 308 305 302 299 294 290 283 276 267 257 247 238 233 230 230 230 231 233 235 236 236 235 234
303 304 305 306 307 307 307 306 305 305 305 306 307 308 309 310 310 309 309 309 308 309 310 312 314 316 318 319 320 320 321 322 323 323 323 324 324 324 324 324 323 323 323 323 323 323 323 323 323 324 325 325 325 325 324 323 322 320 319 317 315 313 311 308 305 302 298 293 287 281 273 263 252 241 232 226 223 222 222 224 226 228 230 231 230 228
303 303 305 306 306 307 306 305 304 304 304 305 306 307 308 308 308 308 307 307 308 309 310 312 315 317 318 319 320 321 322 323 324 324 324 324 324 325 325 324 324 323 323 323 323 323 324 325 326 327 327 328 327 327 325 324 323 321 319 317 315 313 310 307 304 301 296 291 284 277 269 259 248 236 226 219 215 213 214 216 219 221 223 225 225 223
302 303 304 305 305 305 305 304 303 302 303 303 304 305 306 306 306 306 306 307 307 309 310 313 315 317 318 319 320 321 323 324 325 325 325 325 325 325 325 325 324 324 324 324 324 324 325 327 328 329 330 330 329 328 326 325 323 322 320 318 316 313 311 308 305 300 295 289 281 273 264 254 242 230 219 212 208 206 207 209 212 215 218 219 219 218
301 302 303 304 304 304 303 302 301 301 301 302 303 304 304 305 305 305 305 306 307 308 310 312 315 317 318 319 320 321 323 325 325 326 326 325 326 326 326 326 325 325 325 325 325 325 326 328 330 331 332 331 330 329 327 326 325 323 321 319 318 316 313 310 306 301 295 287 278 268 258 248 236 224 213 205 201 199 200 202 205 208 211 213 214 213
301 301 302 302 302 302 301 300 300 300 300 301 301 302 303 303 303 303 304 305 306 308 310 312 315 317 318 319 320 322 323 325 326 326 326 326 326 326 326 326 326 326 325 325 325 326 327 329 330 332 333 332 331 330 328 327 326 325 323 322 320 318 315 311 307 302 296 286 275 263 252 241 230 219 208 200 196 193 194 196 198 201 203 206 208 208
300 300 300 301 301 300 300 299 299 298 299 299 300 300 301 301 302 302 303 304 306 307 310 312 315 317 318 319 320 322 323 325 325 326 326 326 326 327 327 327 327 327 326 326 326 327 328 330 331 333 333 333 332 331 330 329 328 327 326 325 324 322 319 316 312 306 298 287 273 258 245 234 223 212 202 195 190 188 188 189 191 193 195 199 202 202
300 299 299 300 299 299 298 298 297 297 297 298 298 299 300 300 301 302 303 304 305 307 309 312 315 317 318 319 320 322 324 325 325 326 327 328 328 328 328 328 328 328 328 328 327 328 329 331 333 334 334 334 333 333 332 331 331 330 329 328 327 325 323 319 316 311 302 288 270 251 236 225 214 203 195 188 184 181 181 183 184 186 189 191 194 193
299 298 298 298 298 297 297 296 296 296 296 297 297 298 298 299 299 300 302 303 304 307 309 312 315 317 318 319 321 322 324 325 325 327 328 329 330 330 330 330 330 331 331 330 330 329 330 332 334 335 335 335 335 334 334 334 333 333 332 331 330 328 325 322 319 314 307 290 266 241 224 212 202 194 187 182 177 175 175 176 178 180 183 185 185 182
298 297 297 297 296 296 295 294 294 294 294 295 295 296 297 297 298 299 301 302 304 306 309 312 315 317 318 319 321 322 323 325 326 327 329 331 331 332 332 333 334 335 335 335 334 333 333 334 335 336 336 336 337 337 336 336 336 335 334 333 332 330 327 324 321 317 310 293 260 226 208 198 190 184 178 174 171 169 169 171 173 175 176 176 175 170
296 296 296 295 295 294 293 292 292 292 293 293 294 294 295 295 297 298 299 301 303 306 309 312 315 316 318 319 321 322 323 325 326 329 331 332 333 334 334 336 337 339 340 340 339 337 336 336 337 338 338 338 339 340 340 339 338 337 336 335 335 333 331 328 325 321 314 296 242 202 189 183 179 174 169 166 164 164 165 166 168 169 168 166 163 158
295 294 294 293 292 292 291 290 291 291 291 292 292 292 293 294 295 296 298 300 303 306 309 312 315 316 317 319 320 322 323 325 327 330 332 334 335 336 337 339 341 343 344 345 345 343 342 341 341 341 341 341 341 342 343 342 341 340 339 338 338 338 336 334 332 329 324 301 188 171 169 168 166 163 161 158 158 158 160 161 162 161 158 155 152 149
Height
5608 5606 5604 5603 5601 5599 5597 5596 5593 5591 5589 5587 5586 5583 5581 5579 5577 5574 5572 5570 5568 5565 5563 5561 5558 5556 5553 5550 5547 5544 5542 5539 5537 5534 5531 5529 5526 5523 5521 5518 5516 5513 5510 5507 5505 5502 5499 5496 5494 5491 5489 5487 5484 5482 5479 5477 5476 5473 5471 5469 5468 5467 5465 5464 5463 5462 5461 5460 5459 5458 5457 5456 5455 5453 5452 5450 5449 5448 5447 5447 5447 5446 5446 5446 5446 5447
5603 5602 5600 5599 5597 5595 5593 5591 5589 5586 5584 5582 5580 5578 5576 5574 5572 5569 5567 5565 5562 5559 5557 5554 5552 5549 5546 5543 5540 5537 5534 5531 5528 5526 5523 5520 5517 5514 5512 5509 5506 5503 5500 5497 5494 5491 5488 5485 5483 5480 5478 5476 5473 5471 5469 5467 5465 5462 5460 5458 5457 5455 5454 5452 5451 5450 5449 5448 5448 5447 5446 5446 5444 5442 5440 5439 5437 5437 5436 5435 5435 5435 5435 5435 5435 5435
5599 5597 5596 5594 5592 5591 5588 5586 5583 5581 5579 5577 5574 5572 5571 5568 5566 5564 5562 5559 5556 5553 5550 5547 5545 5542 5538 5535 5532 5529 5526 5522 5519 5516 5513 5511 5508 5505 5502 5499 5496 5493 5490 5487 5484 5480 5477 5474 5472 5469 5467 5464 5462 5460 5457 5456 5453 5452 5450 5447 5446 5444 5442 5441 5440 5439 5438 5437 5437 5436 5435 5435 5434 5432 5430 5428 5427 5426 5425 5424 5424 5423 5423 5423 5423 5424
5595 5593 5591 5590 5588 5586 5584 5581 5578 5575 5573 5571 5569 5567 5565 5562 5560 5557 5555 5553 5550 5547 5543 5540 5537 5534 5531 5527 5524 5521 5517 5514 5510 5507 5504 5501 5498 5495 5492 5489 5486 5483 5480 5477 5473 5470 5467 5463 5461 5458 5456 5453 5452 5449 5447 5445 5443 5441 5439 5437 5435 5433 5432 5431 5429 5428 5427 5426 5425 5425 5424 5423 5423 5422 5420 5418 5417 5415 5414 5414 5413 5413 5412 5412 5412 5412
5591 5589 5587 5585 5583 5581 5578 5576 5573 5570 5567 5565 5563 5561 5558 5556 5553 5551 5548 5546 5543 5540 5537 5533 5530 5527 5523 5520 5516 5512 5509 5505 5502 5498 5494 5491 5488 5485 5482 5478 5476 5472 5469 5466 5462 5459 5456 5453 5450 5448 5446 5443 5441 5439 5437 5435 5433 5431 5429 5427 5426 5424 5422 5421 5419 5418 5417 5416 5415 5414 5413 5412 5412 5412 5410 5408 5407 5406 5404 5404 5403 5403 5402 5401 5401 5401
5586 5584 5582 5579 5577 5576 5573 5570 5567 5564 5562 5559 5557 5555 5552 5549 5547 5544 5542 5539 5536 5533 5530 5526 5523 5519 5516 5512 5508 5504 5501 5497 5493 5489 5485 5481 5477 5474 5471 5468 5464 5461 5458 5455 5452 5449 5446 5443 5441 5438 5436 5434 5432 5429 5427 5425 5423 5422 5420 5418 5417 5415 5414 5412 5411 5409 5408 5407 5406 5404 5403 5402 5402 5401 5400 5398 5397 5397 5395 5394 5394 5393 5393 5392 5392 5392
5581 5579 5577 5574 5572 5570 5567 5565 5561 5557 5555 5552 5550 5548 5546 5543 5541 5538 5535 5532 5528 5525 5522 5519 5515 5512 5508 5504 5500 5496 5492 5488 5484 5480 5476 5471 5467 5464 5460 5457 5454 5450 5447 5444 5441 5438 5436 5433 5431 5429 5427 5424 5422 5420 5418 5416 5414 5413 5411 5410 5408 5407 5406 5404 5403 5402 5400 5399 5397 5396 5395 5394 5393 5392 5390 5389 5388 5387 5387 5386 5385 5385 5385 5385 5384 5384
5575 5573 5571 5569 5566 5563 5561 5558 5555 5552 5548 5546 5543 5541 5539 5537 5534 5532 5529 5526 5522 5517 5514 5511 5507 5503 5500 5496 5492 5487 5483 5479 5475 5471 5467 5462 5457 5454 5450 5447 5444 5441 5437 5434 5431 5429 5426 5424 5422 5420 5417 5416 5414 5412 5410 5408 5407 5405 5403 5402 5400 5399 5398 5397 5395 5394 5393 5392 5391 5389 5388 5387 5385 5384 5382 5381 5380 5379 5378 5377 5377 5377 5377 5377 5377 5377
5570 5567 5565 5563 5561 5558 5555 5552 5549 5546 5543 5540 5536 5534 5532 5530 5527 5525 5522 5519 5515 5511 5507 5503 5499 5495 5491 5487 5483 5479 5475 5470 5465 5461 5457 5453 5448 5444 5441 5438 5435 5432 5428 5425 5422 5419 5417 5415 5413 5411 5409 5407 5406 5404 5402 5401 5399 5397 5396 5395 5393 5392 5391 5390 5388 5387 5386 5385 5384 5383 5382 5380 5379 5377 5376 5374 5373 5372 5371 5370 5370 5369 5370 5369 5370 5370
5565 5562 5560 5557 5555 5552 5550 5546 5542 5539 5537 5533 5530 5527 5524 5522 5520 5517 5514 5511 5508 5504 5500 5495 5491 5487 5482 5477 5472 5469 5466 5462 5457 5452 5448 5444 5440 5436 5432 5429 5426 5423 5420 5417 5414 5411 5409 5407 5405 5403 5402 5400 5399 5397 5396 5394 5392 5391 5389 5388 5387 5386 5384 5383 5382 5382 5381 5380 5378 5377 5376 5374 5373 5372 5370 5369 5367 5366 5366 5364 5364 5364 5363 5363 5363 5364
5559 5557 5555 5552 5549 5547 5544 5541 5537 5533 5530 5527 5524 5520 5517 5514 5512 5509 5506 5502 5498 5495 5492 5487 5482 5478 5474 5469 5464 5458 5454 5452 5449 5445 5440 5437 5432 5428 5424 5421 5418 5416 5413 5410 5407 5404 5402 5399 5397 5396 5395 5393 5392 5391 5389 5388 5387 5385 5384 5382 5381 5380 5379 5378 5377 5377 5376 5374 5373 5372 5370 5369 5368 5366 5365 5364 5362 5362 5361 5360 5359 5359 5359 5359 5359 5359
5554 5552 5550 5547 5544 5541 5537 5534 5531 5527 5524 5521 5518 5514 5510 5506 5502 5500 5497 5493 5489 5486 5483 5478 5473 5468 5464 5460 5456 5450 5445 5442 5439 5437 5433 5430 5426 5422 5418 5414 5412 5409 5407 5404 5402 5399 5396 5393 5391 5390 5388 5387 5386 5385 5384 5382 5381 5380 5379 5377 5377 5376 5375 5374 5373 5372 5371 5370 5369 5367 5366 5365 5364 5362 5361 5360 5359 5358 5357 5356 5355 5355 5355 5354 5354 5355
5549 5547 5544 5542 5538 5535 5531 5527 5524 5520 5517 5513 5510 5507 5503 5498 5494 5491 5488 5484 5480 5476 5473 5470 5465 5460 5455 5451 5446 5442 5437 5433 5431 5428 5426 5423 5419 5415 5411 5408 5406 5403 5402 5399 5397 5394 5392 5389 5387 5385 5383 5382 5381 5380 5378 5377 5376 5375 5374 5373 5373 5372 5372 5371 5370 5368 5367 5367 5366 5364 5363 5362 5361 5360 5358 5357 5356 5355 5354 5353 5352 5352 5351 5351 5351 5351
5544 5542 5538 5535 5532 5528 5524 5520 5516 5512 5508 5505 5502 5499 5495 5491 5486 5482 5479 5475 5470 5466 5462 5460 5456 5452 5447 5442 5438 5433 5429 5426 5423 5422 5420 5417 5413 5409 5405 5402 5400 5398 5396 5394 5392 5389 5387 5385 5382 5381 5379 5378 5376 5375 5374 5373 5372 5371 5371 5370 5370 5369 5368 5367 5366 5366 5365 5364 5363 5362 5361 5360 5358 5357 5356 5354 5353 5352 5351 5350 5349 5348 5348 5347 5347 5347
5538 5536 5532 5529 5525 5521 5517 5513 5509 5504 5500 5497 5493 5490 5486 5482 5477 5473 5470 5466 5462 5457 5454 5451 5447 5443 5439 5435 5431 5427 5422 5418 5416 5415 5413 5411 5407 5403 5400 5397 5394 5393 5391 5389 5387 5384 5382 5381 5378 5377 5376 5374 5373 5372 5370 5370 5369 5369 5368 5367 5367 5366 5365 5364 5364 5363 5362 5361 5361 5359 5358 5357 5356 5354 5353 5352 5351 5350 5349 5348 5347 5345 5345 5344 5344 5344
5532 5529 5526 5522 5518 5514 5510 5505 5501 5497 5492 5488 5485 5481 5478 5474 5469 5465 5461 5457 5453 5449 5446 5442 5439 5436 5432 5428 5424 5420 5417 5412 5410 5408 5408 5405 5402 5398 5395 5392 5390 5388 5387 5384 5382 5380 5378 5377 5375 5373 5372 5371 5370 5369 5368 5367 5367 5367 5366 5365 5364 5364 5363 5362 5362 5361 5360 5359 5358 5357 5356 5355 5354 5352 5351 5350 5349 5348 5347 5345 5344 5343 5342 5342 5341 5341
5526 5523 5519 5514 5510 5507 5502 5498 5493 5488 5484 5481 5477 5473 5469 5466 5462 5458 5454 5450 5446 5442 5438 5434 5431 5428 5426 5422 5419 5415 5412 5407 5404 5403 5402 5400 5397 5393 5391 5388 5385 5384 5382 5380 5378 5376 5374 5373 5372 5370 5369 5368 5367 5367 5366 5366 5365 5365 5364 5363 5363 5362 5361 5361 5360 5359 5358 5357 5356 5355 5354 5353 5352 5350 5349 5348 5347 5346 5345 5343 5342 5341 5340 5339 5339 5338
5519 5516 5512 5507 5503 5499 5495 5491 5486 5481 5476 5472 5469 5465 5462 5458 5454 5451 5448 5444 5439 5435 5431 5427 5424 5421 5419 5416 5413 5409 5407 5403 5400 5398 5397 5395 5392 5389 5386 5384 5382 5380 5378 5377 5375 5373 5371 5370 5369 5368 5367 5366 5366 5365 5365 5364 5364 5363 5362 5362 5361 5360 5359 5358 5358 5357 5356 5355 5354 5353 5352 5351 5350 5349 5347 5347 5345 5344 5343 5342 5341 5340 5339 5338 5337 5336
5512 5508 5504 5500 5496 5491 5487 5482 5478 5474 5469 5465 5461 5458 5455 5452 5449 5445 5442 5438 5434 5430 5426 5422 5419 5416 5413 5411 5407 5404 5402 5399 5396 5394 5392 5390 5388 5386 5383 5380 5378 5377 5376 5374 5372 5370 5369 5368 5367 5366 5365 5365 5364 5364 5363 5363 5362 5362 5361 5360 5359 5358 5357 5357 5356 5355 5354 5353 5352 5351 5350 5349 5348 5347 5346 5345 5344 5343 5342 5341 5339 5338 5337 5336 5335 5335
5504 5500 5497 5493 5489 5484 5479 5475 5470 5466 5462 5458 5455 5452 5449 5446 5443 5440 5437 5433 5429 5425 5421 5418 5415 5412 5409 5406 5403 5400 5397 5394 5392 5389 5388 5387 5384 5382 5380 5377 5376 5375 5373 5372 5370 5368 5367 5366 5365 5365 5364 5363 5363 5363 5362 5362 5361 5360 5359 5358 5357 5356 5355 5354 5353 5353 5352 5351 5351 5350 5349 5348 5347 5346 5344 5343 5342 5342 5341 5340 5339 5337 5336 5335 5335 5334
5497 5492 5488 5484 5481 5477 5473 5468 5463 5459 5455 5452 5448 5446 5443 5440 5437 5435 5431 5428 5424 5421 5417 5415 5412 5408 5405 5402 5399 5396 5393 5390 5387 5386 5384 5383 5382 5380 5377 5375 5374 5373 5372 5370 5369 5367 5366 5365 5364 5363 5363 5362 5362 5361 5361 5360 5359 5358 5357 5356 5355 5354 5353 5352 5352 5351 5350 5350 5349 5348 5347 5346 5345 5344 5343 5342 5341 5340 5339 5338 5337 5337 5336 5335 5334 5334
5490 5486 5481 5477 5473 5470 5466 5462 5457 5453 5449 5446 5444 5441 5438 5436 5432 5429 5426 5423 5420 5417 5414 5412 5408 5405 5402 5398 5395 5392 5389 5386 5384 5382 5381 5380 5379 5378 5376 5374 5372 5372 5371 5369 5367 5366 5365 5363 5362 5362 5361 5361 5360 5360 5359 5358 5357 5356 5355 5354 5353 5352 5351 5350 5350 5349 5349 5348 5347 5346 5345 5345 5344 5343 5342 5341 5340 5339 5338 5337 5337 5336 5335 5334 5334 5333
5482 5479 5475 5471 5466 5462 5459 5455 5451 5447 5443 5441 5439 5437 5434 5432 5429 5425 5422 5419 5417 5414 5411 5409 5405 5402 5399 5395 5392 5389 5386 5383 5381 5380 5379 5378 5377 5376 5374 5372 5372 5371 5369 5368 5366 5365 5363 5362 5361 5360 5360 5359 5358 5358 5357 5356 5355 5354 5353 5352 5351 5350 5349 5349 5348 5347 5347 5346 5345 5344 5344 5343 5342 5341 5341 5340 5339 5338 5337 5337 5336 5335 5335 5334 5334 5333
5475 5472 5468 5464 5461 5457 5453 5449 5446 5442 5439 5437 5434 5432 5430 5427 5424 5422 5418 5415 5413 5410 5407 5405 5402 5399 5396 5393 5389 5387 5384 5381 5379 5378 5377 5376 5375 5374 5373 5371 5370 5369 5368 5366 5364 5363 5362 5361 5360 5359 5358 5357 5357 5356 5355 5354 5353 5352 5351 5350 5349 5348 5348 5347 5347 5346 5345 5344 5343 5343 5342 5341 5341 5340 5339 5338 5338 5337 5336 5336 5335 5334 5334 5334 5333 5333
5469 5466 5462 5459 5456 5452 5448 5445 5442 5438 5436 5433 5431 5428 5426 5423 5421 5418 5415 5412 5409 5406 5404 5401 5399 5396 5393 5391 5388 5385 5382 5380 5378 5377 5376 5375 5374 5373 5372 5370 5369 5367 5366 5365 5363 5361 5360 5359 5358 5357 5356 5356 5355 5354 5353 5352 5351 5350 5349 5348 5348 5347 5346 5345 5345 5344 5343 5342 5342 5341 5340 5340 5339 5338 5338 5337 5336 5336 5335 5334 5334 5333 5333 5333 5333 5333
5463 5460 5457 5454 5451 5448 5445 5442 5438 5435 5432 5430 5427 5425 5422 5420 5417 5415 5412 5409 5406 5403 5401 5398 5396 5393 5391 5388 5386 5384 5381 5379 5377 5376 5375 5374 5373 5372 5370 5368 5367 5366 5365 5363 5361 5360 5358 5357 5357 5356 5355 5354 5353 5352 5352 5351 5350 5349 5348 5347 5346 5345 5344 5344 5343 5342 5342 5341 5340 5339 5339 5338 5337 5337 5336 5336 5335 5334 5334 5333 5333 5332 5332 5332 5332 5332
5458 5455 5452 5450 5447 5444 5441 5438 5435 5432 5429 5426 5424 5422 5419 5417 5415 5412 5410 5407 5404 5401 5398 5395 5393 5391 5389 5387 5385 5383 5380 5378 5376 5375 5374 5373 5371 5370 5369 5367 5366 5365 5363 5362 5360 5358 5357 5356 5355 5354 5353 5352 5352 5351 5350 5349 5348 5347 5346 5345 5344 5343 5342 5342 5341 5340 5340 5339 5338 5338 5337 5337 5336 5336 5335 5334 5334 5333 5333 5332 5332 5332 5331 5331 5331 5331
5453 5450 5448 5445 5442 5440 5437 5434 5432 5429 5426 5423 5421 5418 5416 5414 5412 5409 5407 5404 5402 5399 5396 5393 5391 5389 5387 5386 5384 5382 5380 5377 5375 5374 5372 5372 5370 5368 5367 5365 5364 5363 5362 5360 5358 5357 5355 5354 5354 5353 5352 5351 5350 5349 5348 5347 5346 5345 5344 5343 5342 5342 5341 5340 5339 5339 5338 5337 5337 5336 5336 5335 5335 5334 5334 5333 5333 5332 5332 5331 5331 5331 5330 5330 5330 5331
5449 5446 5443 5441 5439 5436 5434 5431 5428 5426 5423 5421 5418 5416 5413 5411 5409 5407 5404 5402 5399 5397 5394 5392 5389 5387 5386 5384 5382 5381 5379 5376 5374 5372 5371 5370 5368 5367 5365 5364 5362 5362 5361 5359 5357 5355 5353 5352 5352 5351 5350 5349 5348 5347 5346 5345 5344 5343 5342 5341 5340 5339 5339 5338 5337 5337 5336 5336 5335 5335 5334 5334 5333 5333 5332 5332 5332 5331 5331 5331 5330 5330 5329 5329 5330 5330
5445 5442 5440 5437 5435 5433 5430 5428 5425 5423 5420 5418 5416 5413 5411 5409 5407 5404 5402 5399 5397 5394 5392 5390 5388 5386 5384 5382 5381 5379 5377 5375 5373 5371 5370 5368 5367 5365 5364 5362 5361 5360 5359 5358 5357 5354 5352 5350 5349 5348 5348 5347 5346 5345 5344 5343 5342 5341 5340 5339 5338 5337 5337 5336 5335 5335 5334 5334 5333 5333 5332 5332 5332 5332 5331 5331 5330 5330 5330 5330 5329 5329 5329 5329 5329 5329
5442 5439 5437 5434 5432 5429 5427 5425 5422 5420 5418 5416 5413 5411 5409 5406 5404 5402 5399 5397 5394 5392 5390 5388 5386 5384 5382 5381 5379 5378 5376 5374 5372 5370 5368 5367 5366 5364 5362 5361 5360 5359 5357 5357 5356 5354 5352 5349 5347 5346 5345 5345 5344 5343 5342 5341 5340 5338 5337 5337 5336 5335 5334 5333 5333 5332 5332 5332 5332 5332 5331 5331 5331 5330 5330 5330 5329 5329 5329 5329 5328 5328 5328 5328 5328 5328
5439 5436 5434 5431 5429 5427 5424 5422 5420 5417 5415 5413 5411 5409 5406 5404 5402 5399 5397 5394 5392 5390 5388 5387 5385 5383 5382 5380 5378 5376 5374 5372 5371 5369 5367 5366 5364 5363 5361 5360 5358 5357 5356 5355 5354 5352 5351 5349 5347 5345 5343 5342 5342 5341 5340 5339 5338 5337 5336 5335 5334 5333 5332 5331 5331 5330 5330 5330 5330 5330 5330 5330 5329 5329 5329 5328 5328 5328 5328 5328 5328 5327 5327 5327 5327 5327
5436 5434 5431 5429 5426 5424 5422 5420 5417 5415 5412 5411 5408 5406 5404 5402 5399 5397 5394 5392 5390 5388 5387 5385 5383 5382 5380 5379 5377 5375 5373 5371 5369 5367 5366 5364 5363 5362 5360 5359 5357 5356 5354 5353 5352 5350 5349 5347 5346 5344 5342 5341 5340 5339 5338 5337 5336 5335 5334 5333 5332 5331 5330 5329 5329 5328 5328 5328 5328 5328 5328 5328 5328 5328 5328 5327 5327 5327 5327 5327 5327 5327 5327 5327 5327 5327
5433 5431 5428 5426 5424 5422 5420 5417 5415 5412 5410 5408 5406 5403 5401 5399 5397 5394 5392 5390 5388 5386 5385 5383 5382 5380 5379 5377 5376 5374 5372 5369 5367 5366 5364 5363 5362 5361 5359 5357 5356 5354 5353 5351 5350 5348 5347 5346 5344 5343 5342 5340 5339 5337 5337 5336 5335 5334 5333 5332 5331 5330 5329 5328 5327 5327 5326 5326 5326 5326 5327 5327 5327 5327 5327 5327 5327 5326 5326 5326 5326 5326 5326 5326 5326 5327
5430 5427 5425 5423 5421 5419 5417 5415 5412 5410 5407 5405 5403 5401 5399 5397 5394 5392 5390 5388 5386 5384 5383 5382 5380 5379 5377 5376 5374 5373 5371 5368 5366 5364 5363 5362 5360 5359 5357 5356 5354 5353 5352 5350 5348 5347 5345 5344 5343 5342 5340 5339 5337 5336 5335 5334 5333 5332 5332 5331 5329 5328 5327 5326 5326 5325 5325 5324 5324 5324 5325 5325 5325 5325 5325 5325 5325 5325 5325 5325 5325 5325 5325 5326 5326 5326
5427 5424 5422 5420 5418 5416 5414 5412 5409 5407 5404 5402 5400 5398 5396 5394 5392 5390 5388 5386 5385 5383 5381 5380 5378 5377 5376 5374 5373 5372 5370 5367 5365 5363 5362 5360 5359 5357 5356 5354 5353 5352 5350 5348 5347 5345 5344 5342 5341 5340 5339 5337 5336 5335 5334 5332 5332 5331 5330 5329 5328 5327 5326 5325 5324 5324 5323 5323 5323 5323 5323 5323 5323 5324 5324 5324 5324 5324 5325 5324 5325 5325 5325 5325 5325 5326
5423 5421 5419 5417 5415 5413 5410 5408 5406 5403 5401 5399 5397 5396 5394 5392 5390 5388 5387 5385 5383 5382 5380 5378 5377 5375 5374 5373 5371 5370 5368 5366 5364 5362 5361 5359 5357 5356 5354 5352 5351 5350 5349 5347 5346 5344 5343 5342 5340 5339 5337 5336 5335 5334 5332 5331 5330 5329 5328 5327 5326 5325 5324 5324 5323 5322 5322 5321 5321 5321 5321 5322 5322 5322 5322 5323 5323 5323 5324 5324 5324 5324 5324 5325 5325 5326
5420 5418 5416 5414 5412 5409 5407 5405 5403 5401 5399 5397 5395 5393 5392 5390 5388 5387 5385 5383 5382 5380 5379 5377 5376 5374 5372 5371 5370 5368 5366 5365 5363 5361 5359 5357 5356 5354 5352 5351 5350 5348 5347 5346 5345 5343 5342 5341 5339 5337 5336 5335 5334 5333 5332 5330 5329 5327 5326 5325 5324 5323 5323 5322 5321 5321 5320 5320 5320 5320 5320 5320 5321 5321 5321 5322 5322 5322 5323 5323 5323 5324 5324 5324 5325 5325
5416 5414 5412 5410 5408 5407 5404 5402 5400 5398 5396 5395 5393 5391 5390 5388 5387 5385 5383 5382 5380 5379 5377 5376 5374 5372 5371 5370 5368 5367 5365 5363 5361 5360 5358 5356 5354 5353 5351 5350 5348 5347 5346 5345 5344 5342 5341 5340 5338 5337 5335 5334 5333 5332 5331 5329 5328 5326 5325 5323 5322 5322 5321 5320 5320 5319 5319 5318 5318 5318 5318 5318 5319 5319 5320 5320 5321 5322 5322 5322 5323 5323 5324 5324 5325 5325
5412 5411 5409 5407 5406 5404 5402 5400 5398 5396 5394 5392 5391 5389 5388 5386 5385 5383 5382 5380 5379 5377 5376 5374 5373 5371 5370 5368 5367 5365 5364 5362 5360 5358 5356 5355 5353 5352 5350 5349 5347 5346 5345 5344 5342 5341 5340 5339 5337 5336 5334 5333 5332 5331 5329 5328 5327 5325 5324 5322 5321 5320 5319 5318 5318 5317 5317 5317 5317 5317 5317 5317 5317 5318 5319 5319 5320 5321 5321 5322 5322 5323 5323 5324 5324 5325
5409 5407 5406 5404 5402 5401 5399 5397 5395 5393 5392 5390 5388 5387 5386 5384 5383 5382 5380 5379 5377 5376 5375 5373 5372 5370 5368 5367 5365 5364 5362 5361 5359 5357 5355 5353 5352 5351 5349 5348 5347 5345 5344 5342 5341 5340 5339 5337 5336 5335 5333 5332 5331 5329 5328 5327 5326 5324 5323 5321 5320 5318 5317 5316 5316 5316 5315 5315 5315 5315 5315 5315 5316 5317 5317 5318 5319 5320 5321 5321 5322 5322 5323 5323 5324 5325
5406 5405 5403 5402 5400 5398 5396 5394 5392 5391 5389 5388 5386 5385 5384 5383 5382 5380 5379 5378 5376 5375 5373 5372 5370 5368 5367 5365 5364 5362 5361 5359 5357 5356 5354 5352 5351 5350 5348 5347 5346 5344 5343 5341 5340 5339 5337 5336 5335 5334 5332 5331 5330 5328 5327 5326 5324 5323 5322 5320 5319 5317 5316 5315 5314 5313 5313 5313 5313 5313 5313 5314 5314 5315 5316 5317 5318 5319 5320 5321 5321 5322 5323 5323 5324 5325
5403 5402 5401 5400 5398 5396 5393 5392 5390 5388 5387 5386 5384 5383 5382 5381 5380 5379 5377 5376 5375 5373 5372 5370 5369 5367 5366 5364 5362 5361 5359 5358 5356 5355 5353 5352 5350 5349 5347 5346 5345 5343 5342 5340 5339 5337 5336 5335 5334 5333 5331 5330 5328 5327 5325 5324 5323 5322 5320 5318 5317 5316 5314 5313 5312 5311 5311 5311 5311 5311 5312 5312 5313 5314 5315 5316 5317 5318 5319 5320 5321 5322 5322 5323 5324 5325
5400 5399 5398 5397 5394 5392 5391 5389 5388 5386 5385 5383 5382 5381 5380 5379 5378 5377 5376 5375 5373 5372 5370 5369 5367 5366 5364 5363 5361 5360 5358 5357 5355 5354 5352 5351 5349 5348 5347 5345 5344 5342 5341 5339 5338 5336 5335 5334 5332 5332 5330 5329 5327 5326 5324 5322 5321 5319 5318 5316 5315 5314 5312 5311 5310 5309 5309 5309 5309 5309 5310 5310 5311 5312 5314 5315 5317 5318 5319 5320 5321 5322 5322 5323 5324 5325
5397 5396 5395 5393 5392 5390 5388 5387 5386 5384 5382 5382 5380 5379 5378 5377 5376 5375 5374 5373 5372 5371 5369 5367 5366 5365 5363 5362 5360 5359 5357 5356 5354 5353 5351 5350 5349 5347 5346 5345 5343 5342 5340 5338 5337 5335 5334 5332 5331 5330 5329 5328 5326 5325 5323 5321 5319 5317 5316 5314 5312 5311 5310 5309 5308 5307 5307 5307 5307 5307 5308 5309 5310 5311 5313 5315 5316 5317 5318 5320 5321 5322 5322 5323 5324 5325
5394 5392 5391 5390 5389 5387 5386 5384 5383 5382 5381 5379 5378 5377 5376 5375 5374 5373 5372 5372 5370 5369 5368 5366 5365 5363 5362 5361 5359 5357 5356 5355 5353 5352 5351 5349 5348 5347 5346 5344 5343 5341 5339 5338 5336 5334 5333 5332 5330 5329 5328 5327 5325 5323 5322 5320 5318 5316 5314 5312 5310 5309 5307 5306 5305 5305 5305 5305 5305 5305 5306 5307 5308 5310 5312 5314 5316 5317 5318 5319 5320 5322 5322 5323 5324 5325
5391 5389 5388 5387 5386 5385 5383 5382 5381 5379 5378 5377 5376 5375 5374 5373 5372 5372 5371 5370 5369 5367 5366 5365 5364 5362 5361 5359 5358 5357 5355 5354 5352 5351 5350 5349 5347 5346 5345 5344 5342 5341 5339 5337 5335 5334 5332 5331 5329 5328 5327 5325 5323 5322 5320 5318 5316 5314 5312 5310 5308 5307 5305 5304 5303 5303 5303 5303 5303 5303 5304 5306 5307 5309 5311 5313 5315 5317 5318 5319 5320 5322 5322 5323 5324 5326
5387 5386 5385 5384 5383 5382 5381 5379 5378 5377 5376 5375 5374 5373 5372 5371 5371 5370 5369 5368 5367 5366 5365 5364 5362 5361 5360 5358 5357 5356 5354 5353 5352 5351 5349 5348 5347 5346 5345 5343 5342 5341 5339 5337 5335 5333 5332 5330 5328 5327 5326 5324 5322 5321 5319 5317 5314 5312 5310 5309 5307 5306 5304 5303 5302 5301 5301 5301 5302 5302 5303 5305 5306 5308 5310 5312 5314 5316 5318 5319 5320 5322 5322 5324 5325 5326
5383 5383 5382 5381 5380 5379 5378 5377 5376 5375 5374 5373 5372 5371 5370 5369 5369 5368 5367 5367 5366 5365 5364 5362 5361 5360 5359 5357 5356 5355 5354 5352 5351 5350 5349 5348 5347 5345 5344 5343 5342 5340 5339 5337 5335 5333 5331 5329 5328 5326 5325 5323 5322 5319 5317 5315 5313 5311 5309 5307 5306 5304 5303 5302 5301 5300 5300 5300 5300 5301 5302 5304 5305 5307 5310 5312 5314 5316 5317 5319 5320 5322 5323 5324 5325 5327
5380 5380 5379 5378 5377 5376 5375 5374 5373 5372 5371 5371 5370 5369 5368 5368 5367 5367 5366 5365 5364 5363 5362 5361 5360 5359 5357 5356 5355 5354 5353 5352 5351 5350 5348 5347 5346 5345 5343 5342 5341 5340 5338 5337 5335 5333 5332 5329 5327 5326 5324 5322 5320 5318 5316 5314 5312 5310 5308 5307 5305 5303 5302 5301 5300 5300 5299 5299 5300 5300 5302 5303 5305 5307 5309 5312 5313 5315 5317 5319 5320 5322 5323 5325 5326 5327
5377 5377 5376 5375 5374 5373 5372 5372 5371 5370 5369 5368 5368 5367 5367 5366 5366 5365 5365 5364 5363 5362 5361 5360 5359 5358 5357 5356 5354 5353 5352 5351 5350 5349 5348 5347 5346 5344 5343 5342 5340 5339 5337 5336 5334 5333 5331 5329 5327 5326 5323 5321 5319 5317 5315 5313 5311 5309 5307 5306 5304 5303 5302 5301 5300 5299 5299 5299 5299 5300 5301 5303 5305 5307 5309 5311 5313 5315 5317 5319 5321 5322 5324 5325 5327 5328